Location: Milton Keynes
(52.0316°N, 0.7531°W)
Time: 00:57:22
(UTC+00:00)

OTV 5 (USA 277) - Visible Passes

Search period start: 24 January 2019 00:00
Search period end: 03 February 2019 00:00
Orbit: 339 x 349 km, 54.5° (Epoch: 15 January)

Date Brightness Start Highest point End Pass type
(mag) Time Alt. Az. Time Alt. Az. Time Alt. Az.
25 Jan ? 06:31:52 10° SSE 06:32:43 11° SE 06:33:34 10° ESE visible
26 Jan ? 06:53:34 10° SSW 06:56:01 24° SE 06:58:30 10° E visible
27 Jan ? 05:44:31 10° SSE 05:45:10 11° SE 05:45:48 10° ESE visible
28 Jan ? 06:06:02 10° SSW 06:08:28 24° SE 06:10:55 10° E visible
29 Jan ? 04:57:37 10° SE 04:57:37 10° SE 04:57:55 10° SE visible
29 Jan ? 06:29:06 10° SW 06:31:57 52° SSE 06:34:49 10° ENE visible
30 Jan ? 05:20:54 23° SE 05:20:55 23° SE 05:23:19 10° E visible
30 Jan ? 06:52:39 10° WSW 06:55:35 81° NNW 06:58:31 10° ENE visible
31 Jan ? 05:44:01 46° S 05:44:23 50° SSE 05:47:14 10° ENE visible
01 Feb ? 04:35:35 11° E 04:35:35 11° E 04:35:44 10° E visible
01 Feb ? 06:07:01 38° WSW 06:08:00 83° NNW 06:10:57 10° ENE visible
02 Feb ? 04:58:29 21° E 04:58:29 21° E 04:59:39 10° ENE visible
02 Feb ? 06:29:55 20° W 06:31:44 55° N 06:34:38 10° ENE visible
